SL-8 R/B

Satellite information

Favourite Embed

Satellite Type and Status

ROCKET BODYIN ORBIT

Key statistics

Satellite SL-8 R/B at a glance.

Uptime

8479

Days in orbit

Revolutions

≈ 13.7

Per day

Orbit

LEO

Low Earth Orbit

Inclination

82.9

Latest

Satellite identification and parameters

Extended collection of information and parameters for SL-8 R/B.

Object identification

Identified? True

Debris? False

Object name: SL-8 R/B

International designator: 2002-046B

Object number (NORAD): 27535

Object ID (CCSDS): 27535

Country: COMMONWEALTH OF INDEPENDENT STATES (CIS)

Current information (Y/N): Y

RCS size: LARGE

Orbital parameters

Period: 104.752 minutes

Inclination: 82.9329 deg

SMA: 7360.97 km

Apoapsis: 1010.625 km

Periapsis: 955.046 km

RAAN: 88.8724 deg

Eccentricy: 0.00377527

Argument of periapsis: 65.8485 deg

Mean anomaly: 348.2471 deg

Mean motion: 13.74675416 rev/day

Mean motion (dot): 0.0000013 rev/day2

B* drag term: 0.00012057845 1/REarth

Two-line elements (TLE)

Creation date: Dec. 12, 2025, 10:14 a.m.

Reference frame: TEME

Reference center: EARTH

Epoch: Dec. 12, 2025, 7:38 a.m. UTC

TLE line 0: 0 SL-8 R/B

TLE line 1: 1 27535U 02046B 25346.31808238 .00000130 00000-0 12058-3 0 9990

TLE line 2: 2 27535 82.9329 88.8724 0037753 65.8485 348.2471 13.74675416164188

Live tracking on map

Real-time ground track for satellite SL-8 R/B.

In-orbit conjunctions

A list of the most updated potential collisions computed for object SL-8 R/B.

Target Orbit TCA Probability of collision Miss distance Type
CZ-6A DEB SSO 2025-06-29 03:45:53 0.002829527 62.0 (m) DEBRIS
FENGYUN 1C DEB SSO 2025-04-27 22:56:47 0.0001123778 241.0 (m) DEBRIS

Associated space launch

Nadezhda 7, also called Nadezhda -M, was a Russian navigational satellite. It was to participate in the international search and rescue (SAR) network known as COSPAS-SARSAT, for ships at sea.

SL-8 R/B was lifted into orbit during the mission ‘Kosmos-3M | Nadezhda-M’, on board a Kosmos-3M space rocket.

The launch took place on Sept. 26, 2002, 2:27 p.m. from 132/1 (132L).

For more information about the launch, click the button.

Launch to space Kosmos-3M | Nadezhda-M
Kosmos-3M | Nadezhda-M

Agency: N/A

Status: Launch Successful

Launch date: Sept. 26, 2002, 2:27 p.m. UTC

Rocket: Kosmos-3M

Launch pad: 132/1 (132L)

Location: Plesetsk Cosmodrome, Russian Federation

...

Latest news about this satellite

There are no fresh news available about this satellite. Check back as we update our databases every day.


Newsletter sign-up

Weekly statistics, charts and insights to help you stay on top of the space industry.